Registrering Status Plassering
LN-NAZ Operativ Rakkestad - ENRK 

Søk
Nye sertifikater

Sertifikater

Kontakt informasjon

Follo flyklubb.
Postboks 226, N-1401 Ski
Epost: post@follo-flyklubb.no

Tel: 64 87 13 82
Du er her: Hovedside

Hovedside

 

Follo flyklubb er en flyklubb med primærbase på Ski flyplass, og sekundærbase (vinterbase) på Rakkestad flyplass. Disse websidene er ment som en informasjonskanal til flyklubbens medlemmer, og andre som måtte være interessert i Follo flyklubbs virksomhet. Har du kommentarer eller bidrag du ønsker å dele med flyklubben, send oss en melding her.

Har noen av flyklubbens medlemmer forslag til turer, aktiviteter eller kurs- og infokvelder dere ønsker at vi deltar på eller avholder, så gi beskjed til styret via epost.

 

Før flyturen: Ta en sjekk på datoer i sertifikatene dine. Husk at det er forskjell på gyldighetsdato for PPL-sertifikatet og klasserettighet, som f.eks. SEP. Her er noen nyttige spørsmål, og litt om rettigheter her.

ENGM 200220Z VRB01KT 0500 R19R/0650U R01R/0500N FG VV001 05/04 Q1022
ENTO 200220Z AUTO 18003KT 0100 R18/0500N R36/0400N FG VV001 05/05 Q1022
ENRY 200220Z AUTO 15003KT 100V170 0100NDV R12/0600N R30/0550N FG OVC000/// 06/06 Q1022
ENSN 090850Z 20010G22KT 150V240 CAVOK 07/03 Q1000
ENCN 200220Z AUTO 06004KT 3300 OVC002/// 04/04 Q1023
ENZV 200150Z 18006KT 8000 NSC 09/07 Q1021
ENFL 200220Z AUTO 12004KT 3700NDV BR FEW013/// OVC020/// 07/06 Q1020
ENFG 190950Z 20006KT 9999 FEW050 SCT180 11/02 Q1028
ENNO 191650Z 13005KT CAVOK 17/08 Q1025
 

Bruk av myWebLog

Follo flyklubb benytter nå myWebLog, se nyheter for mer informasjon
Logging av flyvning skal foretas ”umiddelbart” etter at flyvning har funnet sted. Da har systemet oppdatert medlemmets konto i myWebLog basert på de opplysningene som er skrevet inn i loggen. Flyets data blir også oppdatert, slik at den neste som skal ut å fly kan få en indikasjon på flyets tilstand, hvor det befinner seg og hvor lenge det er til neste service.